Regional Weather Roundup
Issued by NWS

Home | Current Version | Previous Version | Graphics & Text | Print | Product List | Glossary On
Versions: 1 2 3 4 5 6 7 8 9 10 11 12 13 14 15 16 17 18 19 20 21 22 23 24 25 26 27 28 29 30 31 32 33 34 35 36 37 38 39 40 41 42 43 44 45 46 47 48 49 50
000
ASUS43 KTOP 221259
RWRKS

WEATHER ROUNDUP FOR KANSAS
NATIONAL WEATHER SERVICE GOODLAND KS
700 AM CST MON JAN 22 2018

NOTE:  "FAIR" INDICATES FEW OR NO CLOUDS BELOW 12,000 FEET WITH NO
SIGNIFICANT WEATHER AND/OR OBSTRUCTIONS TO VISIBILITY.

KSZ001>006-013>018-027>032-041>047-221400-
NORTHWEST KANSAS

CITY           SKY/WX    TMP DP  RH WIND       PRES   REMARKS
GOODLAND       FOG       26  25  96 NW33G47   29.84R VSB 1/4 WCI   9
HAYS           LGT SNOW  32  30  92 NW30G39   29.62R FOG     WCI  18
RUSSELL        LGT SNOW  34  33  96 NW28      29.57R VSB 1   WCI  21
$$

KSZ061>065-074>080-084>089-221400-
SOUTHWEST KANSAS

CITY           SKY/WX    TMP DP  RH WIND       PRES   REMARKS
DODGE CITY     MIX PCPN  32  25  75 NW35G51   29.71R WCI  17
GARDEN CITY    LGT SNOW  30  26  85 NW36G49   29.77R FOG     WCI  14
GREAT BEND     FLURRIES  33  31  92 NW29G37   29.58R WCI  19
$$

KSZ066>073-081>083-090>101-221400-
SOUTHEAST KANSAS

CITY           SKY/WX    TMP DP  RH WIND       PRES   REMARKS
COFFEYVILLE    PTCLDY    39  29  67 SW17G28   29.60F WCI  30
HUTCHINSON     CLOUDY    35  33  92 NW23G31   29.50R WCI  23
MEDICINE LODGE   N/A     42  27  55 NW25G44   29.62R
NEWTON         LGT RAIN  35  32  88 W14       29.48R WCI  26
PARSONS        CLOUDY    39  30  70 SW14G23   29.58F WCI  31
WICHITA INTL   CLOUDY    38  31  76 W21G30    29.52R WCI  28
WICHITA JABRA  CLOUDY    37  32  82 W17G25    29.50S WCI  27
WICHITA MCCONL CLOUDY    37  29  72 W18G24    29.51S WCI  27
WINFIELD       CLOUDY    39  28  64 W22G30    29.59R WCI  29
$$

KSZ007>012-019>026-033>040-048>060-102>105-221400-
NORTHEAST KANSAS

CITY           SKY/WX    TMP DP  RH WIND       PRES   REMARKS
CONCORDIA      CLOUDY    33  32  96 N22G29    29.48S WCI  21
EMPORIA        CLOUDY    36  31  82 SW15      29.46S WCI  27
LAWRENCE       CLOUDY    37  34  89 S16       29.47F WCI  28
MANHATTAN      CLOUDY    34  32  92 SW9       29.44S
OLATHE IND     CLOUDY    35  33  92 S15       29.49F WCI  25
OLATHE EXE     CLOUDY    35  33  92 SW12G20   29.49S WCI  27
SALINA         LGT SNOW  36  35  96 NW23G31   29.48R FOG     WCI  24
TOPEKA BILLARD CLOUDY    36  34  92 SW7       29.46S
TOPEKA FORBES  CLOUDY    36  33  89 S10       29.46R WCI  28
$$



USA.gov is the U.S. government's official web portal to all federal, state and local government web resources and services.